sat.trackr.live / text

‹ back to catalog

STARLINK-5433

NORAD 54793 · 2022-175AM

PAYLOAD ACTIVE UNKNOWN

§ Identity

Operator
Country
US
Launch date
2022-12-17
Launch site
AFETR
Launch vehicle
Mass (kg)
RCS (m²)

Purposes: comms

External: N2YO · Heavens-Above · Gunter

§ Orbital elements

Epoch: 2026-05-25T00:30:49.412736Z

Period
95.44 min
Inclination
53.2128°
Eccentricity
0.0001391
Mean motion
15.08845191 rev/d
Perigee alt
538.8 km
Apogee alt
540.7 km
Semi-major
6,917.9 km
B*
2.3514e-5
RAAN
36.4661°
Arg perigee
120.2857°
Mean anomaly
239.8273°
Rev number
19,179

§ Raw data

STARLINK-54331 54793U 22175AM  26145.02140524  .00000086  00000+0  23514-4 0  99932 54793  53.2128  36.4661 0001391 120.2857 239.8273 15.08845191191799

JSON: /api/v1/satellites/54793 · /tle

For live sub-satellite position, see the globe view (requires WebGL).

§ Visibility from observer

Set your observer location to see the next 7 days of passes ≥ 10°. The values pass through the URL so the page stays shareable.

No JS? Fill the form by hand. The geolocation button needs JavaScript.